Tracking 30743 objects as of 22-Jun-2025
HD Live streaming from Space Station
objects crossing your sky now

RTU MIREA 1

Track RTU MIREA 1 now!
10-day predictions


NORAD ID: 61785
Int'l Code: 2024-199BC
Perigee: 459.5 km
Apogee: 480.9 km
Inclination: 97.4 °
Period: 93.9 minutes
Semi major axis: 6841 km
RCS: Unknown
Launch date: November 4, 2024
Source: Commonwealth of Independent States (former USSR) (CIS)
Launch site: VOSTOCHNY COSMODROME (VOSTO)
Your satellite tracking list
Your tracking list is empty




NASA's NSSDC Master Catalog

Two Line Element Set (TLE):
1 61785U 24199BC  25173.58999260  .00012748  00000-0  38482-3 0  9998
2 61785  97.3531  42.1051 0015661 141.4630 218.7735 15.34280897 78935
Source of the keplerian elements: AFSPC